ONEWEB-0319 (49105 NORAD) Tracking and Keplerian Element Data

This shows tracking and keplerian element data for the satellite.

Feedback or suggestion? Click here.




ElementValue
Catalog49105
NameONEWEB-0319
Epoch Orbit949
Epoch Day288.25002315
Epoch Year2021
RAAN348.0088
Inclination87.495
Eccentricity0.0023488
Argument of Perigee101.6601
Mean Anonmoly193.8481
Mean Motion14.62713971
Decay Rate-0.01168873
L11 49105U 21075AG 21288.25002315 -.01168873 00000-0 -24712+0 0 9994
L22 49105 87.4950 348.0088 0023488 101.6601 193.8481 14.62713971 9492

Live tracking and technical data element details for ONEWEB-0319 (NORAD 49105). ONEWEB-0319 can be tracked NOW for your location showing map with azimuth and elevation plus other details from your city location.

Track the satellite on the map from your city or location and see movement details for azimuth, elevation, latitude, longitude, range, height, and movement on the map or in text.







IsCatalogInMostPopularTable: catalog: 49105, numindb: 14
Update: records affected: 1



GetName: 49105 ONEWEB-0319

Hit Count: updated at: Sun, 17 Oct 2021 10:05:02 GMT